User: anonymous   Login
Location: Caltech
(34.1382°N, 118.1253°W)
Time: 22:19:11
(UTC-07:00)
Language:

SO-67 - Orbit

View from above orbital plane
View from above orbital plane
View from above satellite
View from above satellite

Ground track
Ground track

The orbit data is extracted from the following two-line orbital elements,

1 35870U 09049F   16145.87690081  .00007251  00000-0  13795-3 0  9994
2 35870  97.1194 161.0704 0003184  80.8991  39.3450 15.48518810373037
Epoch (UTC): 24 May 2016 21:02:44
Eccentricity: 0.0003184
inclination: 97.1194°
perigee height: 419 km
apogee height: 423 km
right ascension of ascending node: 161.0704°
argument of perigee: 80.8991°
revolutions per day: 15.48518810
mean anomaly at epoch: 39.3450°
orbit number at epoch: 37303

The dashed part of the orbit path shows where the satellite is in the earth's shadow,  

DLR